When you browse on this site, cookies collect data to enhance your experience and personalize the content and advertising you see.
Visit our Privacy Policy to learn more. By continuing to use the site, you agree to this use of cookies and data.
  • In Österreich
  • Länderverzeichnis
  • Für 7 Tage
  • Wassertemperatur
  • Wetterkarte
  • News
  • Widgets
  • user-avatar
    Anmelden

    Stündliche Wetter Zorya

    Heute, 25 August, Sonntag

    Zeit Temperatur Niederschläge Wind Luftdruck Luftfeuchtigkeit
    00:00 +26°C° 0 mm 5 m/S 760 mmHg 53%
    01:00 +26°C° 0 mm 5 m/S 760 mmHg 54%
    02:00 +25°C° 0 mm 4 m/S 760 mmHg 58%
    03:00 +25°C° 0 mm 4 m/S 760 mmHg 59%
    04:00 +23°C° 0 mm 4 m/S 760 mmHg 60%
    05:00 +23°C° 0 mm 4 m/S 760 mmHg 61%
    06:00 +25°C° 0 mm 4 m/S 761 mmHg 58%
    07:00 +27°C° 0 mm 5 m/S 761 mmHg 56%
    08:00 +29°C° 0 mm 5 m/S 761 mmHg 54%
    09:00 +30°C° 0 mm 5 m/S 761 mmHg 48%
    10:00 +33°C° 0 mm 5 m/S 761 mmHg 43%
    11:00 +35°C° 0 mm 5 m/S 761 mmHg 38%
    12:00 +35°C° 0 mm 5 m/S 761 mmHg 35%
    13:00 +36°C° 0 mm 5 m/S 761 mmHg 32%
    14:00 +37°C° 0 mm 5 m/S 760 mmHg 29%
    15:00 +36°C° 0 mm 6 m/S 760 mmHg 29%
    16:00 +35°C° 0 mm 6 m/S 760 mmHg 29%
    17:00 +35°C° 0 mm 6 m/S 760 mmHg 29%
    18:00 +33°C° 0 mm 5 m/S 760 mmHg 31%
    19:00 +30°C° 0 mm 5 m/S 761 mmHg 33%
    20:00 +28°C° 0 mm 4 m/S 761 mmHg 35%
    21:00 +27°C° 0 mm 4 m/S 761 mmHg 36%
    22:00 +26°C° 0 mm 4 m/S 761 mmHg 37%
    23:00 +25°C° 0 mm 4 m/S 761 mmHg 38%

    Morgen, 26 August, Montag

    Zeit Temperatur Niederschläge Wind Luftdruck Luftfeuchtigkeit
    00:00 +23°C° 0 mm 4 m/S 761 mmHg 40%
    01:00 +23°C° 0 mm 4 m/S 762 mmHg 41%
    02:00 +22°C° 0 mm 5 m/S 762 mmHg 42%
    03:00 +21°C° 0 mm 5 m/S 762 mmHg 45%
    04:00 +21°C° 0 mm 4 m/S 761 mmHg 49%
    05:00 +20°C° 0 mm 4 m/S 761 mmHg 53%
    06:00 +22°C° 0 mm 5 m/S 761 mmHg 50%
    07:00 +23°C° 0 mm 5 m/S 762 mmHg 47%
    08:00 +26°C° 0 mm 6 m/S 762 mmHg 44%
    09:00 +28°C° 0 mm 5 m/S 762 mmHg 41%
    10:00 +30°C° 0 mm 5 m/S 762 mmHg 38%
    11:00 +33°C° 0 mm 5 m/S 762 mmHg 34%
    12:00 +34°C° 0 mm 5 m/S 762 mmHg 32%
    13:00 +34°C° 0 mm 5 m/S 761 mmHg 29%
    14:00 +35°C° 0 mm 5 m/S 761 mmHg 26%
    15:00 +34°C° 0 mm 5 m/S 761 mmHg 27%
    16:00 +34°C° 0 mm 5 m/S 761 mmHg 27%
    17:00 +33°C° 0 mm 5 m/S 760 mmHg 28%
    18:00 +30°C° 0 mm 5 m/S 760 mmHg 31%
    19:00 +28°C° 0 mm 4 m/S 761 mmHg 35%
    20:00 +26°C° 0 mm 4 m/S 761 mmHg 38%
    21:00 +26°C° 0 mm 4 m/S 761 mmHg 43%
    22:00 +25°C° 0 mm 4 m/S 761 mmHg 47%
    23:00 +23°C° 0 mm 4 m/S 761 mmHg 52%

    übermorgen, 27 August, Dienstag

    Zeit Temperatur Niederschläge Wind Luftdruck Luftfeuchtigkeit
    00:00 +23°C° 0 mm 4 m/S 761 mmHg 53%
    01:00 +22°C° 0 mm 4 m/S 761 mmHg 54%
    02:00 +21°C° 0 mm 4 m/S 761 mmHg 55%
    03:00 +21°C° 0 mm 4 m/S 761 mmHg 55%
    04:00 +20°C° 0 mm 4 m/S 761 mmHg 55%
    05:00 +20°C° 0 mm 4 m/S 761 mmHg 55%
    06:00 +21°C° 0 mm 4 m/S 761 mmHg 49%
    07:00 +23°C° 0 mm 5 m/S 761 mmHg 44%
    08:00 +26°C° 0 mm 5 m/S 761 mmHg 38%
    09:00 +28°C° 0 mm 5 m/S 761 mmHg 34%
    10:00 +29°C° 0 mm 5 m/S 761 mmHg 31%
    11:00 +32°C° 0 mm 6 m/S 761 mmHg 27%
    12:00 +32°C° 0 mm 5 m/S 761 mmHg 25%
    13:00 +33°C° 0 mm 5 m/S 760 mmHg 24%
    14:00 +34°C° 0 mm 5 m/S 760 mmHg 22%
    15:00 +33°C° 0 mm 5 m/S 760 mmHg 23%
    16:00 +33°C° 0 mm 5 m/S 760 mmHg 23%
    17:00 +33°C° 0 mm 4 m/S 759 mmHg 24%
    18:00 +30°C° 0 mm 4 m/S 760 mmHg 28%
    19:00 +27°C° 0 mm 4 m/S 760 mmHg 32%
    20:00 +25°C° 0 mm 4 m/S 760 mmHg 36%
    21:00 +23°C° 0 mm 4 m/S 760 mmHg 39%
    22:00 +22°C° 0 mm 4 m/S 760 mmHg 41%
    23:00 +22°C° 0 mm 3 m/S 760 mmHg 44%

    28 August, Mittwoch

    Zeit Temperatur Niederschläge Wind Luftdruck Luftfeuchtigkeit
    00:00 +21°C° 0 mm 3 m/S 760 mmHg 46%
    01:00 +20°C° 0 mm 3 m/S 760 mmHg 49%
    02:00 +20°C° 0 mm 3 m/S 760 mmHg 51%
    03:00 +19°C° 0 mm 3 m/S 760 mmHg 54%
    04:00 +19°C° 0 mm 3 m/S 760 mmHg 57%
    05:00 +19°C° 0 mm 3 m/S 760 mmHg 60%
    06:00 +20°C° 0 mm 3 m/S 760 mmHg 56%
    07:00 +22°C° 0 mm 4 m/S 761 mmHg 53%
    08:00 +25°C° 0 mm 4 m/S 761 mmHg 49%
    09:00 +27°C° 0 mm 4 m/S 760 mmHg 44%
    10:00 +28°C° 0 mm 4 m/S 760 mmHg 40%
    11:00 +30°C° 0 mm 5 m/S 760 mmHg 36%
    12:00 +30°C° 0 mm 4 m/S 760 mmHg 34%
    13:00 +32°C° 0 mm 4 m/S 759 mmHg 32%
    14:00 +33°C° 0 mm 4 m/S 759 mmHg 30%
    15:00 +32°C° 0 mm 5 m/S 759 mmHg 32%
    16:00 +32°C° 0 mm 5 m/S 759 mmHg 33%
    17:00 +30°C° 0 mm 5 m/S 758 mmHg 35%
    18:00 +28°C° 0 mm 5 m/S 759 mmHg 40%
    19:00 +26°C° 0 mm 4 m/S 759 mmHg 45%
    20:00 +25°C° 0 mm 4 m/S 759 mmHg 50%
    21:00 +24°C° 0 mm 3 m/S 759 mmHg 51%
    22:00 +22°C° 0 mm 3 m/S 759 mmHg 51%
    23:00 +21°C° 0 mm 3 m/S 759 mmHg 51%

    29 August, Donnerstag

    Zeit Temperatur Niederschläge Wind Luftdruck Luftfeuchtigkeit
    00:00 +21°C° 0 mm 4 m/S 759 mmHg 52%
    01:00 +20°C° 0 mm 4 m/S 759 mmHg 53%
    02:00 +19°C° 0 mm 4 m/S 759 mmHg 53%
    03:00 +19°C° 0 mm 4 m/S 759 mmHg 56%
    04:00 +18°C° 0 mm 4 m/S 760 mmHg 58%
    05:00 +18°C° 0 mm 4 m/S 760 mmHg 60%
    06:00 +19°C° 0 mm 4 m/S 760 mmHg 55%
    07:00 +20°C° 0 mm 5 m/S 760 mmHg 50%
    08:00 +22°C° 0 mm 5 m/S 760 mmHg 45%
    09:00 +23°C° 0 mm 5 m/S 760 mmHg 42%
    10:00 +25°C° 0 mm 5 m/S 760 mmHg 38%
    11:00 +27°C° 0 mm 6 m/S 761 mmHg 35%
    12:00 +27°C° 0 mm 6 m/S 760 mmHg 33%
    13:00 +27°C° 0 mm 6 m/S 760 mmHg 30%
    14:00 +27°C° 0 mm 6 m/S 760 mmHg 28%
    15:00 +26°C° 0 mm 6 m/S 760 mmHg 28%
    16:00 +26°C° 0 mm 6 m/S 760 mmHg 28%
    17:00 +24°C° 0 mm 6 m/S 760 mmHg 28%
    18:00 +22°C° 0 mm 5 m/S 760 mmHg 32%
    19:00 +20°C° 0 mm 5 m/S 760 mmHg 35%
    20:00 +19°C° 0 mm 4 m/S 760 mmHg 38%
    21:00 +18°C° 0 mm 4 m/S 760 mmHg 42%
    22:00 +17°C° 0 mm 4 m/S 760 mmHg 45%
    23:00 +17°C° 0 mm 4 m/S 761 mmHg 49%

    30 August, Freitag

    Zeit Temperatur Niederschläge Wind Luftdruck Luftfeuchtigkeit
    00:00 +15°C° 0 mm 4 m/S 761 mmHg 52%
    01:00 +15°C° 0 mm 4 m/S 761 mmHg 54%
    02:00 +14°C° 0 mm 4 m/S 761 mmHg 57%
    03:00 +13°C° 0 mm 4 m/S 761 mmHg 59%
    04:00 +13°C° 0 mm 4 m/S 761 mmHg 60%
    05:00 +12°C° 0 mm 4 m/S 761 mmHg 62%
    06:00 +14°C° 0 mm 4 m/S 761 mmHg 56%
    07:00 +16°C° 0 mm 5 m/S 761 mmHg 50%
    08:00 +19°C° 0 mm 5 m/S 761 mmHg 45%
    09:00 +20°C° 0 mm 6 m/S 761 mmHg 39%
    10:00 +22°C° 0 mm 6 m/S 762 mmHg 34%
    11:00 +24°C° 0 mm 6 m/S 762 mmHg 29%
    12:00 +24°C° 0 mm 6 m/S 761 mmHg 26%
    13:00 +26°C° 0 mm 6 m/S 761 mmHg 24%
    14:00 +27°C° 0 mm 6 m/S 761 mmHg 22%
    15:00 +26°C° 0 mm 5 m/S 761 mmHg 22%
    16:00 +26°C° 0 mm 5 m/S 761 mmHg 23%
    17:00 +26°C° 0 mm 5 m/S 761 mmHg 23%
    18:00 +23°C° 0 mm 5 m/S 761 mmHg 27%
    19:00 +21°C° 0 mm 4 m/S 761 mmHg 30%
    20:00 +19°C° 0 mm 4 m/S 762 mmHg 34%
    21:00 +18°C° 0 mm 4 m/S 762 mmHg 35%
    22:00 +17°C° 0 mm 4 m/S 762 mmHg 37%
    23:00 +17°C° 0 mm 4 m/S 763 mmHg 39%
    Mehr zeigen